TimeMST,TemperatureF,Dew PointF,Humidity,Sea Level PressureIn,VisibilityMPH,Wind Direction,Wind SpeedMPH,Gust SpeedMPH,PrecipitationIn,Events,Conditions,WindDirDegrees,DateUTC
12:53 AM,24.1,15.1,69,30.08,10.0,NW,8.1,-,N/A,,Clear,320,2012-11-26 07:53:00
1:53 AM,19.9,14.0,78,30.11,10.0,NNW,8.1,-,N/A,,Clear,330,2012-11-26 08:53:00
2:53 AM,18.0,12.9,81,30.15,10.0,North,5.8,-,N/A,,Clear,360,2012-11-26 09:53:00
3:53 AM,16.0,12.0,84,30.18,10.0,NW,10.4,-,N/A,,Partly Cloudy,320,2012-11-26 10:53:00
4:53 AM,15.1,10.9,84,30.24,10.0,West,4.6,-,N/A,,Clear,260,2012-11-26 11:53:00
5:53 AM,10.9,6.1,81,30.31,10.0,NNW,3.5,-,N/A,,Clear,340,2012-11-26 12:53:00
6:53 AM,10.9,7.0,84,30.35,10.0,NW,4.6,-,N/A,,Clear,320,2012-11-26 13:53:00
7:53 AM,10.9,7.0,84,30.38,10.0,NNW,4.6,-,N/A,,Clear,340,2012-11-26 14:53:00
8:53 AM,17.1,12.0,81,30.38,10.0,Calm,Calm,-,N/A,,Clear,0,2012-11-26 15:53:00
9:53 AM,24.1,18.0,77,30.33,10.0,ESE,3.5,-,N/A,,Clear,120,2012-11-26 16:53:00
10:53 AM,26.1,19.0,75,30.36,10.0,SSW,3.5,-,N/A,,Clear,200,2012-11-26 17:53:00
11:53 AM,28.9,19.0,67,30.31,10.0,ESE,4.6,-,N/A,,Clear,120,2012-11-26 18:53:00
12:53 PM,30.0,17.1,59,30.29,10.0,Variable,3.5,-,N/A,,Clear,0,2012-11-26 19:53:00
1:53 PM,32.0,17.1,54,30.27,10.0,Calm,Calm,-,N/A,,Clear,0,2012-11-26 20:53:00
2:53 PM,32.0,16.0,52,30.28,10.0,Calm,Calm,-,N/A,,Clear,0,2012-11-26 21:53:00
3:53 PM,33.1,16.0,50,30.28,10.0,Calm,Calm,-,N/A,,Clear,0,2012-11-26 22:53:00
4:53 PM,27.0,15.1,61,30.32,10.0,ENE,4.6,-,N/A,,Clear,70,2012-11-26 23:53:00
5:53 PM,19.9,12.0,71,30.38,10.0,ENE,3.5,-,N/A,,Clear,70,2012-11-27 00:53:00
6:53 PM,18.0,10.9,74,30.39,10.0,North,5.8,-,N/A,,Clear,350,2012-11-27 01:53:00
7:53 PM,15.1,10.0,80,30.42,10.0,Calm,Calm,-,N/A,,Clear,0,2012-11-27 02:53:00
8:53 PM,14.0,10.0,84,30.40,10.0,North,3.5,-,N/A,,Clear,360,2012-11-27 03:53:00
9:53 PM,16.0,10.0,77,30.36,10.0,Calm,Calm,-,N/A,,Clear,0,2012-11-27 04:53:00
10:53 PM,8.1,3.9,83,30.40,10.0,North,4.6,-,N/A,,Clear,350,2012-11-27 05:53:00
11:53 PM,9.0,3.9,80,30.38,10.0,East,3.5,-,N/A,,Clear,80,2012-11-27 06:53:00